| time (UTC) | temp F | wind direction | speed knots | gust knots | rain 1hr in | rain 24hr in | rain mn in | humidity % | barometer mb |
| 20260506213144 | 29 | 284 | 0.0 | 0.0 | 0.00 | 0.00 | 0.00 | 98 | 1021.0 |
| 20260506212641 | 29 | 285 | 0.0 | 0.0 | 0.00 | 0.00 | 0.00 | 97 | 1021.0 |
| 20260506212135 | 30 | 285 | 0.0 | 0.0 | 0.00 | 0.00 | 0.00 | 98 | 1021.1 |
| 20260506211632 | 28 | 284 | 0.0 | 0.0 | 0.00 | 0.00 | 0.00 | 97 | 1020.8 |
| 20260506211129 | 29 | 283 | 0.0 | 0.0 | 0.00 | 0.00 | 0.00 | 96 | 1021.2 |
| 20260506210626 | 28 | 278 | 0.0 | 0.0 | 0.00 | 0.00 | 0.00 | 94 | 1021.1 |
| 20260506210122 | 29 | 274 | 0.0 | 0.0 | 0.00 | 0.00 | 0.00 | 96 | 1021.1 |
| 20260506205619 | 28 | 288 | 0.0 | 0.0 | 0.00 | 0.00 | 0.00 | 98 | 1021.0 |
| 20260506205114 | 28 | 290 | 0.0 | 0.0 | 0.00 | 0.00 | 0.00 | 97 | 1021.0 |
| 20260506204612 | 28 | 289 | 0.0 | 0.0 | 0.00 | 0.00 | 0.00 | 97 | 1021.0 |
| 20260506204109 | 27 | 290 | 0.0 | 0.0 | 0.00 | 0.00 | 0.00 | 97 | 1021.2 |
| 20260506203607 | 28 | 289 | 0.0 | 0.0 | 0.00 | 0.00 | 0.00 | 97 | 1021.2 |
| 20260506203103 | 26 | 289 | 0.0 | 0.0 | 0.00 | 0.00 | 0.00 | 96 | 1021.2 |
| 20260506202601 | 27 | 289 | 0.0 | 0.0 | 0.00 | 0.00 | 0.00 | 97 | 1021.1 |
| 20260506202057 | 26 | 289 | 0.0 | 0.0 | 0.00 | 0.00 | 0.00 | 97 | 1021.4 |
| 20260506201555 | 26 | 289 | 0.0 | 0.0 | 0.00 | 0.00 | 0.00 | 97 | 1021.2 |
| 20260506201051 | 25 | 289 | 0.0 | 0.0 | 0.00 | 0.00 | 0.00 | 96 | 1021.5 |
| 20260506200547 | 24 | 289 | 0.0 | 0.0 | 0.00 | 0.00 | 0.00 | 97 | 1021.4 |
| 20260506200044 | 25 | 289 | 0.0 | 0.0 | 0.00 | 0.00 | 0.00 | 96 | 1021.4 |
| 20260506195541 | 24 | 289 | 0.0 | 0.0 | 0.00 | 0.00 | 0.00 | 95 | 1021.4 |
| 20260506195037 | 25 | 289 | 0.0 | 0.0 | 0.00 | 0.00 | 0.00 | 96 | 1021.2 |
| 20260506194535 | 24 | 289 | 0.0 | 0.0 | 0.00 | 0.00 | 0.00 | 97 | 1021.1 |
| 20260506194031 | 22 | 290 | 0.0 | 0.0 | 0.00 | 0.00 | 0.00 | 96 | 1021.2 |
| 20260506193529 | 23 | 290 | 0.0 | 0.0 | 0.00 | 0.00 | 0.00 | 96 | 1021.5 |
| 20260506193026 | 24 | 290 | 0.0 | 0.0 | 0.00 | 0.00 | 0.00 | 97 | 1021.5 |
| 20260506192523 | 24 | 289 | 0.0 | 0.0 | 0.00 | 0.00 | 0.00 | 97 | 1021.2 |
| 20260506192018 | 23 | 290 | 0.0 | 0.0 | 0.00 | 0.00 | 0.00 | 96 | 1021.5 |
| 20260506191515 | 23 | 290 | 0.0 | 0.0 | 0.00 | 0.00 | 0.00 | 97 | 1021.4 |
| 20260506191012 | 23 | 290 | 0.0 | 0.0 | 0.00 | 0.00 | 0.00 | 97 | 1021.2 |
| 20260506190509 | 23 | 290 | 0.0 | 0.0 | 0.00 | 0.00 | 0.00 | 97 | 1021.4 |
| 20260506190006 | 22 | 290 | 0.0 | 0.0 | 0.00 | 0.00 | 0.00 | 96 | 1021.5 |
| 20260506185503 | 23 | 290 | 0.0 | 0.0 | 0.00 | 0.00 | 0.00 | 97 | 1021.4 |
| 20260506184959 | 23 | 290 | 0.0 | 0.0 | 0.00 | 0.00 | 0.00 | 97 | 1021.5 |
| 20260506184457 | 23 | 290 | 0.0 | 0.0 | 0.00 | 0.00 | 0.00 | 97 | 1021.5 |
| 20260506183954 | 23 | 290 | 0.0 | 0.0 | 0.00 | 0.00 | 0.00 | 97 | 1021.5 |
| 20260506183449 | 24 | 290 | 0.0 | 0.0 | 0.00 | 0.00 | 0.00 | 98 | 1021.5 |
| 20260506182946 | 24 | 290 | 0.0 | 0.0 | 0.00 | 0.00 | 0.00 | 98 | 1021.8 |
| 20260506182444 | 23 | 290 | 0.0 | 0.0 | 0.00 | 0.00 | 0.00 | 98 | 1021.8 |
| 20260506181941 | 24 | 290 | 0.0 | 0.0 | 0.00 | 0.00 | 0.00 | 97 | 1021.5 |
| 20260506181439 | 24 | 290 | 0.0 | 0.0 | 0.00 | 0.00 | 0.00 | 98 | 1021.6 |
| 20260506180935 | 24 | 290 | 0.0 | 0.0 | 0.00 | 0.00 | 0.00 | 98 | 1021.4 |
| 20260506180432 | 23 | 290 | 0.0 | 0.0 | 0.00 | 0.00 | 0.00 | 97 | 1021.6 |
| 20260506175923 | 23 | 290 | 0.0 | 0.0 | 0.00 | 0.00 | 0.00 | 98 | 1021.6 |
| 20260506175420 | 23 | 290 | 0.0 | 0.0 | 0.00 | 0.00 | 0.00 | 98 | 1021.6 |
| 20260506174916 | 24 | 290 | 0.0 | 0.0 | 0.00 | 0.00 | 0.00 | 98 | 1021.5 |
| 20260506174414 | 23 | 290 | 0.0 | 0.0 | 0.00 | 0.00 | 0.00 | 98 | 1021.2 |
| 20260506173912 | 22 | 290 | 0.0 | 0.0 | 0.00 | 0.00 | 0.00 | 98 | 1021.5 |
| 20260506173408 | 23 | 290 | 0.0 | 0.0 | 0.00 | 0.00 | 0.00 | 98 | 1021.6 |
| 20260506172905 | 22 | 290 | 0.0 | 0.0 | 0.00 | 0.00 | 0.00 | 98 | 1021.6 |
| 20260506172401 | 22 | 290 | 0.0 | 0.0 | 0.00 | 0.00 | 0.00 | 98 | 1021.2 |
| 20260506171859 | 22 | 290 | 0.0 | 0.0 | 0.00 | 0.00 | 0.00 | 97 | 1021.2 |
| 20260506171356 | 22 | 290 | 0.0 | 0.0 | 0.00 | 0.00 | 0.00 | 97 | 1021.5 |
| 20260506170853 | 21 | 290 | 0.0 | 0.0 | 0.00 | 0.00 | 0.00 | 97 | 1021.5 |
| 20260506170349 | 20 | 290 | 0.0 | 0.0 | 0.00 | 0.00 | 0.00 | 97 | 1021.2 |
| 20260506165849 | 20 | 291 | 0.0 | 0.0 | 0.00 | 0.00 | 0.00 | 97 | 1021.2 |
| 20260506165346 | 20 | 291 | 0.0 | 0.0 | 0.00 | 0.00 | 0.00 | 97 | 1021.2 |
| 20260506164837 | 20 | 291 | 0.0 | 0.0 | 0.00 | 0.00 | 0.00 | 97 | 1021.0 |
| 20260506164334 | 21 | 291 | 0.0 | 0.0 | 0.00 | 0.00 | 0.00 | 97 | 1020.8 |
| 20260506163831 | 21 | 291 | 0.0 | 0.0 | 0.00 | 0.00 | 0.00 | 97 | 1020.6 |
| 20260506163325 | 21 | 291 | 0.0 | 0.0 | 0.00 | 0.00 | 0.00 | 97 | 1020.7 |
| 20260506162821 | 22 | 290 | 0.0 | 0.0 | 0.00 | 0.00 | 0.00 | 97 | 1020.6 |
| 20260506162319 | 21 | 291 | 0.0 | 0.0 | 0.00 | 0.00 | 0.00 | 97 | 1020.7 |
| 20260506161817 | 21 | 291 | 0.0 | 0.0 | 0.00 | 0.00 | 0.00 | 97 | 1020.4 |
| 20260506161314 | 22 | 291 | 0.0 | 0.0 | 0.00 | 0.00 | 0.00 | 97 | 1020.6 |
| 20260506160812 | 22 | 291 | 0.0 | 0.0 | 0.00 | 0.00 | 0.00 | 98 | 1020.3 |
| 20260506160308 | 22 | 291 | 0.0 | 0.0 | 0.00 | 0.00 | 0.00 | 98 | 1020.2 |
| 20260506155807 | 22 | 291 | 0.0 | 0.0 | 0.00 | 0.00 | 0.00 | 97 | 1020.4 |
| 20260506155306 | 22 | 291 | 0.0 | 0.0 | 0.00 | 0.00 | 0.00 | 97 | 1020.4 |
| 20260506153415 | 21 | 291 | 0.0 | 0.0 | 0.00 | 0.00 | 0.00 | 97 | 1020.3 |
| 20260506152913 | 21 | 291 | 0.0 | 0.0 | 0.00 | 0.00 | 0.00 | 97 | 1020.2 |
| 20260506152409 | 21 | 291 | 0.0 | 0.0 | 0.00 | 0.00 | 0.00 | 97 | 1020.3 |
| 20260506151908 | 21 | 291 | 0.0 | 0.0 | 0.00 | 0.00 | 0.00 | 97 | 1020.2 |
| 20260506151404 | 21 | 291 | 0.0 | 0.0 | 0.00 | 0.00 | 0.00 | 97 | 1020.3 |
| 20260506150902 | 20 | 291 | 0.0 | 0.0 | 0.00 | 0.00 | 0.00 | 97 | 1020.2 |
| 20260506150358 | 21 | 291 | 0.0 | 0.0 | 0.00 | 0.00 | 0.00 | 97 | 1020.2 |
| 20260506145855 | 20 | 291 | 0.0 | 0.0 | 0.00 | 0.00 | 0.00 | 97 | 1020.0 |
| 20260506145351 | 20 | 291 | 0.0 | 0.0 | 0.00 | 0.00 | 0.00 | 97 | 1020.2 |
| 20260506144849 | 20 | 291 | 0.0 | 0.0 | 0.00 | 0.00 | 0.00 | 97 | 1020.2 |
| 20260506144345 | 19 | 291 | 0.0 | 0.0 | 0.00 | 0.00 | 0.00 | 97 | 1019.8 |
| 20260506143844 | 20 | 291 | 0.0 | 0.0 | 0.00 | 0.00 | 0.00 | 97 | 1019.8 |
| 20260506143341 | 19 | 291 | 0.0 | 0.0 | 0.00 | 0.00 | 0.00 | 97 | 1019.8 |
| 20260506142839 | 19 | 291 | 0.0 | 0.0 | 0.00 | 0.00 | 0.00 | 97 | 1019.9 |
| 20260506142337 | 19 | 291 | 0.0 | 0.0 | 0.00 | 0.00 | 0.00 | 97 | 1019.8 |
| 20260506141835 | 19 | 291 | 0.0 | 0.0 | 0.00 | 0.00 | 0.00 | 97 | 1019.8 |
| 20260506141332 | 19 | 290 | 0.0 | 0.0 | 0.00 | 0.00 | 0.00 | 97 | 1019.8 |
| 20260506140830 | 20 | 290 | 0.0 | 0.0 | 0.00 | 0.00 | 0.00 | 97 | 1019.5 |
| 20260506140327 | 20 | 290 | 0.0 | 0.0 | 0.00 | 0.00 | 0.00 | 97 | 1019.8 |
| 20260506135824 | 20 | 290 | 0.0 | 0.0 | 0.00 | 0.00 | 0.00 | 97 | 1019.8 |
| 20260506135320 | 19 | 290 | 0.0 | 0.0 | 0.00 | 0.00 | 0.00 | 97 | 1019.4 |
| 20260506134817 | 19 | 290 | 0.0 | 0.0 | 0.00 | 0.00 | 0.00 | 97 | 1019.5 |
| 20260506134313 | 19 | 290 | 0.0 | 0.0 | 0.00 | 0.00 | 0.00 | 97 | 1019.6 |
| 20260506133810 | 19 | 290 | 0.0 | 0.0 | 0.00 | 0.00 | 0.00 | 96 | 1019.6 |
| 20260506133307 | 19 | 290 | 0.0 | 0.0 | 0.00 | 0.00 | 0.00 | 96 | 1019.5 |
| 20260506132804 | 19 | 290 | 0.0 | 0.0 | 0.00 | 0.00 | 0.00 | 96 | 1019.3 |
| 20260506132301 | 19 | 290 | 0.0 | 0.0 | 0.00 | 0.00 | 0.00 | 96 | 1019.4 |
| 20260506131759 | 19 | 290 | 0.0 | 0.0 | 0.00 | 0.00 | 0.00 | 96 | 1019.3 |
| 20260506131255 | 19 | 290 | 0.0 | 0.0 | 0.00 | 0.00 | 0.00 | 96 | 1019.4 |
| 20260506130752 | 19 | 290 | 0.0 | 0.0 | 0.00 | 0.00 | 0.00 | 96 | 1019.4 |
| 20260506130249 | 19 | 290 | 0.0 | 0.0 | 0.00 | 0.00 | 0.00 | 96 | 1019.3 |
| 20260506125747 | 19 | 290 | 0.0 | 0.0 | 0.00 | 0.00 | 0.00 | 96 | 1019.0 |
| 20260506125244 | 19 | 290 | 0.0 | 0.0 | 0.00 | 0.00 | 0.00 | 96 | 1019.1 |
| 20260506124743 | 19 | 290 | 0.0 | 0.0 | 0.00 | 0.00 | 0.00 | 96 | 1019.0 |
| 20260506124240 | 19 | 290 | 0.0 | 0.0 | 0.00 | 0.00 | 0.00 | 96 | 1018.7 |
| 20260506123737 | 19 | 290 | 0.0 | 0.0 | 0.00 | 0.00 | 0.00 | 96 | 1018.9 |
| 20260506123236 | 18 | 290 | 0.0 | 0.0 | 0.00 | 0.00 | 0.00 | 96 | 1018.6 |
| 20260506122732 | 18 | 290 | 0.0 | 0.0 | 0.00 | 0.00 | 0.00 | 96 | 1018.6 |
| 20260506122229 | 18 | 290 | 0.0 | 0.0 | 0.00 | 0.00 | 0.00 | 96 | 1018.3 |
| 20260506121728 | 18 | 290 | 0.0 | 0.0 | 0.00 | 0.00 | 0.00 | 96 | 1018.7 |
| 20260506121224 | 18 | 290 | 0.0 | 0.0 | 0.00 | 0.00 | 0.00 | 96 | 1018.5 |
| 20260506120722 | 18 | 290 | 0.0 | 0.0 | 0.00 | 0.00 | 0.00 | 96 | 1018.5 |
| 20260506120219 | 18 | 290 | 0.0 | 0.0 | 0.00 | 0.00 | 0.00 | 96 | 1018.3 |
| 20260506115717 | 18 | 290 | 0.0 | 0.0 | 0.00 | 0.00 | 0.00 | 96 | 1018.3 |
| 20260506115215 | 18 | 290 | 0.0 | 0.0 | 0.00 | 0.00 | 0.00 | 96 | 1018.5 |
| 20260506114712 | 18 | 290 | 0.0 | 0.0 | 0.00 | 0.00 | 0.00 | 96 | 1018.6 |
| 20260506114210 | 18 | 290 | 0.0 | 0.0 | 0.00 | 0.00 | 0.00 | 96 | 1017.9 |
| 20260506113708 | 18 | 290 | 0.0 | 0.0 | 0.00 | 0.00 | 0.00 | 96 | 1018.1 |
| 20260506113205 | 18 | 290 | 0.0 | 0.0 | 0.00 | 0.00 | 0.00 | 96 | 1018.1 |
| 20260506112701 | 19 | 290 | 0.0 | 0.0 | 0.00 | 0.00 | 0.00 | 96 | 1017.9 |
| 20260506112159 | 19 | 290 | 0.0 | 0.0 | 0.00 | 0.00 | 0.00 | 96 | 1018.2 |
| 20260506111656 | 19 | 290 | 0.0 | 0.0 | 0.00 | 0.00 | 0.00 | 96 | 1018.2 |
| 20260506111154 | 19 | 290 | 0.0 | 0.0 | 0.00 | 0.00 | 0.00 | 96 | 1017.9 |
| 20260506110651 | 18 | 290 | 0.0 | 0.0 | 0.00 | 0.00 | 0.00 | 96 | 1018.1 |
| 20260506110148 | 18 | 290 | 0.0 | 0.0 | 0.00 | 0.00 | 0.00 | 96 | 1018.1 |
| 20260506105645 | 19 | 290 | 0.0 | 0.0 | 0.00 | 0.00 | 0.00 | 96 | 1018.1 |
| 20260506105142 | 19 | 290 | 0.0 | 0.0 | 0.00 | 0.00 | 0.00 | 96 | 1017.8 |
| 20260506104640 | 19 | 290 | 0.0 | 0.0 | 0.00 | 0.00 | 0.00 | 96 | 1017.8 |
| 20260506104137 | 19 | 290 | 0.0 | 0.0 | 0.00 | 0.00 | 0.00 | 96 | 1017.9 |
| 20260506103634 | 19 | 290 | 0.0 | 0.0 | 0.00 | 0.00 | 0.00 | 96 | 1017.9 |
| 20260506103131 | 19 | 290 | 0.0 | 0.0 | 0.00 | 0.00 | 0.00 | 96 | 1018.2 |
| 20260506102629 | 19 | 290 | 0.0 | 0.0 | 0.00 | 0.00 | 0.00 | 96 | 1018.2 |
| 20260506102126 | 19 | 290 | 0.0 | 0.0 | 0.00 | 0.00 | 0.00 | 96 | 1018.1 |
| 20260506101623 | 19 | 290 | 0.0 | 0.0 | 0.00 | 0.00 | 0.00 | 97 | 1018.2 |
| 20260506101120 | 19 | 290 | 0.0 | 0.0 | 0.00 | 0.00 | 0.00 | 97 | 1018.1 |
| 20260506100619 | 19 | 290 | 0.0 | 0.0 | 0.00 | 0.00 | 0.00 | 97 | 1018.1 |
| 20260506100116 | 19 | 290 | 0.0 | 0.0 | 0.00 | 0.00 | 0.00 | 97 | 1018.2 |
| 20260506095615 | 19 | 290 | 0.0 | 0.0 | 0.00 | 0.00 | 0.00 | 97 | 1018.2 |
| 20260506095111 | 19 | 290 | 0.0 | 0.0 | 0.00 | 0.00 | 0.00 | 97 | 1018.5 |
| 20260506094608 | 19 | 290 | 0.0 | 0.0 | 0.00 | 0.00 | 0.00 | 97 | 1018.2 |
| 20260506094106 | 19 | 290 | 0.0 | 0.0 | 0.00 | 0.00 | 0.00 | 97 | 1018.1 |
| 20260506093604 | 19 | 290 | 0.0 | 0.0 | 0.00 | 0.00 | 0.00 | 97 | 1018.3 |
| 20260506093101 | 19 | 290 | 0.0 | 0.0 | 0.00 | 0.00 | 0.00 | 97 | 1018.2 |
| 20260506092559 | 19 | 290 | 0.0 | 0.0 | 0.00 | 0.00 | 0.00 | 97 | 1017.9 |
| 20260506092055 | 19 | 290 | 0.0 | 0.0 | 0.00 | 0.00 | 0.00 | 97 | 1018.1 |
| 20260506091554 | 19 | 290 | 0.0 | 0.0 | 0.00 | 0.00 | 0.00 | 97 | 1018.1 |
| 20260506091051 | 20 | 290 | 0.0 | 0.0 | 0.00 | 0.00 | 0.00 | 97 | 1018.2 |
| 20260506090549 | 20 | 290 | 0.0 | 0.0 | 0.00 | 0.00 | 0.00 | 97 | 1018.1 |
| 20260506090045 | 20 | 290 | 0.0 | 0.0 | 0.00 | 0.00 | 0.00 | 97 | 1018.2 |
| 20260506085542 | 20 | 290 | 0.0 | 0.0 | 0.00 | 0.00 | 0.00 | 97 | 1018.2 |
| 20260506085038 | 20 | 290 | 0.0 | 0.0 | 0.00 | 0.00 | 0.00 | 97 | 1018.1 |
| 20260506084535 | 20 | 290 | 0.0 | 0.0 | 0.00 | 0.00 | 0.00 | 97 | 1018.3 |
| 20260506084031 | 20 | 290 | 0.0 | 0.0 | 0.00 | 0.00 | 0.00 | 97 | 1017.8 |
| 20260506083529 | 20 | 290 | 0.0 | 0.0 | 0.00 | 0.00 | 0.00 | 97 | 1018.1 |
| 20260506083026 | 20 | 290 | 0.0 | 0.0 | 0.00 | 0.00 | 0.00 | 97 | 1018.2 |
| 20260506082523 | 20 | 290 | 0.0 | 0.0 | 0.00 | 0.00 | 0.00 | 97 | 1018.3 |
| 20260506082018 | 20 | 290 | 0.0 | 0.0 | 0.00 | 0.00 | 0.00 | 97 | 1018.1 |
| 20260506081517 | 20 | 290 | 0.0 | 0.0 | 0.00 | 0.00 | 0.00 | 97 | 1018.2 |
| 20260506081014 | 20 | 290 | 0.0 | 0.0 | 0.00 | 0.00 | 0.00 | 97 | 1018.2 |
| 20260506080511 | 20 | 290 | 0.0 | 0.0 | 0.00 | 0.00 | 0.00 | 97 | 1018.2 |
| 20260506073455 | 20 | 290 | 0.0 | 0.0 | 0.00 | 0.00 | 0.00 | 97 | 1018.2 |
| 20260506072952 | 20 | 290 | 0.0 | 0.0 | 0.00 | 0.00 | 0.00 | 97 | 1018.1 |
| 20260506072449 | 20 | 290 | 0.0 | 0.0 | 0.00 | 0.00 | 0.00 | 97 | 1018.2 |
| 20260506071947 | 20 | 290 | 0.0 | 0.0 | 0.00 | 0.00 | 0.00 | 97 | 1018.2 |
| 20260506071444 | 20 | 290 | 0.0 | 0.0 | 0.00 | 0.00 | 0.00 | 97 | 1018.5 |
| 20260506070941 | 20 | 290 | 0.0 | 0.0 | 0.00 | 0.00 | 0.00 | 97 | 1018.3 |
| 20260506070438 | 20 | 290 | 0.0 | 0.0 | 0.00 | 0.00 | 0.00 | 97 | 1018.3 |
| 20260506062416 | 20 | 290 | 0.0 | 0.0 | 0.00 | 0.00 | 0.00 | 97 | 1018.2 |
| 20260506061911 | 20 | 290 | 0.0 | 0.0 | 0.00 | 0.00 | 0.00 | 97 | 1018.1 |
| 20260506061408 | 20 | 290 | 0.0 | 0.0 | 0.00 | 0.00 | 0.00 | 97 | 1017.9 |
| 20260506060906 | 20 | 290 | 0.0 | 0.0 | 0.00 | 0.00 | 0.00 | 97 | 1017.9 |
| 20260506060404 | 20 | 290 | 0.0 | 0.0 | 0.00 | 0.00 | 0.00 | 97 | 1017.8 |
| 20260506051336 | 20 | 291 | 0.0 | 0.0 | 0.00 | 0.04 | 0.04 | 97 | 1017.7 |
| 20260506050833 | 20 | 291 | 0.0 | 0.0 | 0.00 | 0.04 | 0.04 | 97 | 1017.7 |
| 20260506050331 | 20 | 291 | 0.0 | 0.0 | 0.00 | 0.04 | 0.04 | 97 | 1017.8 |
| 20260506044821 | 20 | 291 | 0.0 | 0.0 | 0.00 | 0.04 | 0.04 | 97 | 1017.5 |
| 20260506044319 | 21 | 291 | 0.0 | 0.0 | 0.00 | 0.04 | 0.04 | 97 | 1017.5 |
| 20260506043816 | 21 | 291 | 0.0 | 0.0 | 0.00 | 0.04 | 0.04 | 97 | 1017.4 |
| 20260506043313 | 21 | 291 | 0.0 | 0.0 | 0.00 | 0.04 | 0.04 | 97 | 1017.5 |
| 20260506042812 | 21 | 291 | 0.0 | 0.0 | 0.00 | 0.04 | 0.04 | 97 | 1017.4 |
| 20260506042310 | 21 | 291 | 0.0 | 0.0 | 0.00 | 0.04 | 0.04 | 97 | 1017.4 |
| 20260506041809 | 21 | 291 | 0.0 | 0.0 | 0.00 | 0.04 | 0.04 | 97 | 1017.5 |
| 20260506041305 | 21 | 291 | 0.0 | 0.0 | 0.00 | 0.04 | 0.04 | 97 | 1017.5 |
| 20260506040802 | 21 | 291 | 0.0 | 0.0 | 0.00 | 0.04 | 0.04 | 97 | 1017.4 |
| 20260506040259 | 21 | 291 | 0.0 | 0.0 | 0.00 | 0.04 | 0.04 | 97 | 1017.5 |
| 20260506035756 | 21 | 291 | 0.0 | 0.0 | 0.00 | 0.04 | 0.04 | 97 | 1017.4 |
| 20260506035253 | 21 | 291 | 0.0 | 0.0 | 0.00 | 0.04 | 0.04 | 97 | 1017.4 |
| 20260506034750 | 21 | 291 | 0.0 | 0.0 | 0.00 | 0.04 | 0.04 | 97 | 1017.3 |
| 20260506034247 | 21 | 291 | 0.0 | 0.0 | 0.00 | 0.04 | 0.04 | 97 | 1017.1 |
| 20260506033744 | 21 | 291 | 0.0 | 0.0 | 0.00 | 0.04 | 0.04 | 97 | 1017.3 |
| 20260506033241 | 21 | 291 | 0.0 | 0.0 | 0.00 | 0.04 | 0.04 | 97 | 1017.1 |
| 20260506032738 | 21 | 291 | 0.0 | 0.0 | 0.00 | 0.04 | 0.04 | 97 | 1017.0 |
| 20260506032235 | 21 | 291 | 0.0 | 0.0 | 0.00 | 0.04 | 0.04 | 97 | 1017.0 |
| 20260506031732 | 21 | 291 | 0.0 | 0.0 | 0.00 | 0.04 | 0.04 | 97 | 1016.9 |
| 20260506031229 | 21 | 291 | 0.0 | 0.0 | 0.00 | 0.04 | 0.04 | 97 | 1016.8 |
| 20260506030727 | 21 | 291 | 0.0 | 0.0 | 0.00 | 0.04 | 0.04 | 97 | 1016.6 |
| 20260506030225 | 21 | 291 | 0.0 | 0.0 | 0.00 | 0.04 | 0.04 | 97 | 1016.8 |
| 20260506025721 | 21 | 291 | 0.0 | 0.0 | 0.00 | 0.04 | 0.04 | 97 | 1016.5 |
| 20260506025218 | 21 | 291 | 0.0 | 0.0 | 0.00 | 0.04 | 0.04 | 97 | 1016.5 |
| 20260506024715 | 21 | 291 | 0.0 | 0.0 | 0.00 | 0.04 | 0.04 | 97 | 1016.4 |
| 20260506024211 | 21 | 271 | 0.0 | 0.0 | 0.00 | 0.04 | 0.04 | 97 | 1016.4 |
| 20260506023707 | 21 | 271 | 0.0 | 0.0 | 0.00 | 0.04 | 0.04 | 97 | 1016.6 |
| 20260506023205 | 21 | 291 | 0.0 | 0.0 | 0.00 | 0.04 | 0.04 | 97 | 1016.1 |
| 20260506022702 | 21 | 271 | 0.0 | 0.0 | 0.00 | 0.04 | 0.04 | 97 | 1016.2 |
| 20260506022159 | 21 | 304 | 0.0 | 0.0 | 0.00 | 0.04 | 0.04 | 97 | 1016.1 |
| 20260506021652 | 21 | 274 | 0.0 | 0.0 | 0.00 | 0.04 | 0.04 | 97 | 1016.2 |
| 20260506021149 | 21 | 278 | 0.0 | 0.0 | 0.00 | 0.04 | 0.04 | 97 | 1016.1 |
| 20260506020645 | 21 | 278 | 0.0 | 0.0 | 0.00 | 0.04 | 0.04 | 97 | 1016.0 |
| 20260506020143 | 21 | 285 | 0.0 | 0.0 | 0.00 | 0.04 | 0.04 | 97 | 1016.0 |
| 20260506015641 | 22 | 283 | 0.0 | 0.0 | 0.00 | 0.04 | 0.04 | 98 | 1015.7 |
| 20260506015137 | 22 | 271 | 0.0 | 0.0 | 0.00 | 0.04 | 0.04 | 98 | 1015.8 |
| 20260506014635 | 22 | 297 | 0.0 | 0.0 | 0.00 | 0.04 | 0.04 | 98 | 1015.6 |
| 20260506014130 | 22 | 275 | 0.0 | 0.0 | 0.00 | 0.04 | 0.04 | 98 | 1015.8 |
| 20260506013628 | 22 | 262 | 0.0 | 0.0 | 0.00 | 0.04 | 0.04 | 98 | 1015.7 |
| 20260506013125 | 22 | 261 | 0.0 | 0.0 | 0.00 | 0.04 | 0.04 | 98 | 1015.7 |
| 20260506012621 | 22 | 310 | 0.0 | 0.0 | 0.00 | 0.04 | 0.04 | 98 | 1015.4 |
| 20260506012117 | 23 | 278 | 0.0 | 0.0 | 0.00 | 0.04 | 0.04 | 98 | 1015.6 |
| 20260506011610 | 23 | 313 | 0.0 | 0.0 | 0.00 | 0.04 | 0.04 | 98 | 1015.6 |
| 20260506011106 | 22 | 272 | 0.0 | 0.0 | 0.00 | 0.04 | 0.04 | 98 | 1015.7 |
| 20260506010605 | 22 | 284 | 0.0 | 0.0 | 0.00 | 0.04 | 0.04 | 98 | 1015.4 |
| 20260506005559 | 23 | 271 | 0.0 | 0.0 | 0.00 | 0.04 | 0.04 | 98 | 1015.8 |
| 20260506005055 | 23 | 277 | 0.0 | 0.0 | 0.00 | 0.04 | 0.04 | 98 | 1015.7 |
| 20260506004552 | 23 | 310 | 0.0 | 0.0 | 0.00 | 0.04 | 0.04 | 98 | 1015.8 |
| 20260506004048 | 23 | 271 | 0.0 | 0.0 | 0.00 | 0.04 | 0.04 | 98 | 1015.4 |
| 20260506003545 | 23 | 291 | 0.0 | 0.0 | 0.00 | 0.04 | 0.04 | 98 | 1015.6 |
| 20260506003041 | 23 | 272 | 0.0 | 0.0 | 0.00 | 0.04 | 0.04 | 98 | 1015.4 |
| 20260506002537 | 23 | 268 | 0.0 | 0.0 | 0.00 | 0.04 | 0.04 | 98 | 1015.7 |
| 20260506002033 | 23 | 306 | 2.6 | 2.6 | 0.00 | 0.04 | 0.04 | 98 | 1015.4 |
| 20260506001530 | 24 | 269 | 0.0 | 0.9 | 0.00 | 0.04 | 0.04 | 98 | 1015.4 |
| 20260506001027 | 24 | 293 | 1.7 | 5.2 | 0.00 | 0.04 | 0.04 | 98 | 1015.3 |
| 20260506000525 | 24 | 283 | 0.9 | 2.6 | 0.00 | 0.04 | 0.04 | 99 | 1015.4 |
| 20260506000022 | 24 | 279 | 0.0 | 2.6 | 0.00 | 0.04 | 0.04 | 99 | 1015.3 |
| 20260505235520 | 24 | 301 | 0.0 | 0.9 | 0.00 | 0.04 | 0.04 | 99 | 1015.4 |
| 20260505235016 | 24 | 290 | 1.7 | 2.6 | 0.00 | 0.04 | 0.04 | 99 | 1015.2 |
| 20260505234513 | 24 | 294 | 0.9 | 1.7 | 0.00 | 0.04 | 0.04 | 99 | 1015.4 |
| 20260505234010 | 24 | 299 | 0.9 | 0.9 | 0.00 | 0.04 | 0.04 | 99 | 1015.3 |
| 20260505233508 | 25 | 277 | 0.9 | 1.7 | 0.00 | 0.04 | 0.04 | 99 | 1015.2 |
| 20260505233005 | 25 | 279 | 0.9 | 2.6 | 0.00 | 0.04 | 0.04 | 99 | 1015.0 |
| 20260505232503 | 25 | 288 | 0.9 | 3.5 | 0.00 | 0.04 | 0.04 | 99 | 1015.2 |
| 20260505232000 | 25 | 275 | 0.9 | 1.7 | 0.00 | 0.04 | 0.04 | 99 | 1015.3 |
| 20260505231457 | 25 | 278 | 0.0 | 2.6 | 0.00 | 0.04 | 0.04 | 99 | 1015.3 |
| 20260505230955 | 25 | 282 | 0.9 | 2.6 | 0.00 | 0.04 | 0.04 | 99 | 1015.2 |
| 20260505230452 | 25 | 292 | 3.5 | 5.2 | 0.00 | 0.04 | 0.04 | 99 | 1014.8 |
| 20260505225948 | 25 | 15 | 1.7 | 2.6 | 0.00 | 0.04 | 0.04 | 99 | 1014.9 |
| 20260505225446 | 26 | 341 | 2.6 | 5.2 | 0.00 | 0.04 | 0.04 | 99 | 1014.9 |
| 20260505224942 | 26 | 278 | 3.5 | 3.5 | 0.00 | 0.04 | 0.04 | 99 | 1015.0 |
| 20260505224439 | 26 | 289 | 0.9 | 3.5 | 0.00 | 0.04 | 0.04 | 99 | 1014.4 |
| 20260505223936 | 26 | 30 | 2.6 | 2.6 | 0.00 | 0.04 | 0.04 | 99 | 1014.9 |
| 20260505223433 | 26 | 320 | 0.0 | 0.9 | 0.00 | 0.04 | 0.04 | 99 | 1014.9 |
| 20260505222929 | 26 | 272 | 0.0 | 0.9 | 0.00 | 0.04 | 0.04 | 99 | 1015.0 |
| 20260505222425 | 26 | 287 | 1.7 | 2.6 | 0.00 | 0.04 | 0.04 | 99 | 1015.2 |
| 20260505221921 | 26 | 285 | 1.7 | 2.6 | 0.00 | 0.04 | 0.04 | 99 | 1015.2 |
| 20260505221419 | 26 | 299 | 1.7 | 2.6 | 0.00 | 0.04 | 0.04 | 99 | 1014.6 |
| 20260505220916 | 26 | 187 | 1.7 | 5.2 | 0.00 | 0.04 | 0.04 | 99 | 1014.6 |
| 20260505220413 | 26 | 137 | 2.6 | 5.2 | 0.00 | 0.04 | 0.04 | 99 | 1014.5 |
| 20260505215910 | 27 | 325 | 2.6 | 5.2 | 0.00 | 0.04 | 0.04 | 99 | 1014.4 |
| 20260505215408 | 26 | 333 | 1.7 | 2.6 | 0.00 | 0.04 | 0.04 | 99 | 1014.8 |
| 20260505214906 | 27 | 308 | 1.7 | 2.6 | 0.00 | 0.04 | 0.04 | 99 | 1014.8 |
| 20260505214403 | 26 | 273 | 0.9 | 1.7 | 0.00 | 0.04 | 0.04 | 99 | 1014.6 |
| 20260505213900 | 27 | 64 | 0.9 | 2.6 | 0.00 | 0.04 | 0.04 | 99 | 1014.6 |